Wind_Speed
24 24 24 24 24 23 23 23 23 24 24 24 24 24 24 23 22 21 20 19 18 18 18 19 19 19 20 20 20 20 20 21 21 21 22 22 23 23 23 24 24 24 25 25 26 26 27 28 29 30 30 31 31 31 31 30 30 29 29 29 28 28 28 29 29 29 29 29 29
24 23 23 22 22 21 20 20 21 21 22 22 23 23 23 22 21 20 19 19 19 19 19 19 19 19 20 20 20 21 21 21 22 22 23 23 24 24 25 25 25 25 25 26 26 27 27 28 28 29 30 30 31 31 31 31 31 31 31 31 31 30 30 30 30 30 30 30 30
22 22 22 21 20 20 19 19 19 19 20 20 21 21 21 21 20 19 19 19 19 19 19 19 19 20 20 21 21 21 22 22 23 23 24 24 25 25 26 26 26 26 26 27 27 27 27 28 28 28 29 29 29 30 30 30 30 30 31 31 31 30 30 31 31 31 31 31 31
21 21 21 21 20 20 19 19 18 18 19 19 19 20 19 19 18 18 18 19 19 19 20 20 20 21 21 22 22 22 23 23 24 24 25 25 26 26 26 27 27 27 27 27 28 28 28 28 28 28 28 28 28 28 28 28 28 29 29 29 29 29 29 30 30 30 30 31 31
21 21 21 21 20 20 20 19 18 18 18 18 19 18 18 18 18 19 19 20 20 21 21 22 22 22 22 22 23 23 23 24 24 25 25 26 26 26 27 27 27 28 28 28 28 28 28 28 28 28 29 29 29 29 28 28 28 28 29 29 29 29 29 29 29 29 29 30 31
21 21 21 21 20 20 20 19 19 19 19 19 19 19 19 19 20 20 21 21 22 22 23 23 23 23 23 23 23 23 24 24 25 25 25 26 26 27 27 28 28 28 28 28 28 28 29 29 29 29 29 29 29 29 29 29 29 30 30 29 29 29 29 29 29 29 29 30 30
22 21 21 20 20 20 20 20 20 20 20 20 20 21 21 21 22 22 22 23 23 23 23 23 23 23 23 23 23 23 24 24 25 25 26 26 27 27 27 28 28 28 28 28 28 29 29 29 29 30 30 30 30 30 30 30 30 31 31 31 30 29 29 29 29 29 29 29 30
21 21 20 20 20 20 20 20 20 20 21 21 21 22 22 22 22 23 23 23 23 23 23 22 23 23 23 23 23 24 24 25 25 26 26 27 27 28 28 28 28 28 28 29 29 29 29 30 30 30 30 30 30 30 30 30 31 31 31 31 31 30 29 29 29 29 29 29 29
21 20 20 20 20 20 20 20 20 21 21 21 22 22 22 22 22 22 22 22 22 22 22 22 22 23 23 24 24 25 25 26 26 27 27 27 28 28 28 28 29 29 29 29 29 29 30 30 30 30 30 30 30 30 30 30 31 31 31 31 31 31 31 30 30 30 29 29 29
20 20 20 20 20 20 20 20 20 20 21 21 21 21 22 21 22 22 22 22 22 22 22 23 23 24 24 25 25 25 26 27 27 27 28 28 28 29 29 29 29 29 29 29 29 29 30 30 30 30 30 30 30 30 30 30 30 31 31 31 31 31 31 31 30 30 29 28 28
19 19 19 19 19 19 19 20 20 20 20 20 20 21 21 21 21 21 21 22 22 22 23 24 24 25 25 26 26 27 27 27 28 28 28 28 29 29 29 30 30 30 30 29 29 29 30 30 30 30 30 30 30 30 30 30 30 30 30 30 30 30 30 30 30 29 28 28 28
19 19 19 19 19 19 19 19 19 19 19 20 20 20 20 21 21 21 21 22 22 23 24 25 25 26 26 26 27 27 28 28 28 28 28 29 29 29 29 30 30 30 29 29 29 29 30 30 30 30 30 30 30 30 30 29 29 29 29 29 29 29 29 29 29 28 28 27 27
18 18 18 18 18 18 18 18 18 18 19 19 20 20 21 21 22 22 22 22 23 24 25 25 26 26 27 27 27 28 28 28 28 28 29 29 29 29 29 30 30 29 29 29 29 29 29 30 30 30 30 29 29 29 29 29 28 28 28 28 28 28 28 28 28 27 26 26 26
17 17 17 17 17 16 16 17 17 18 18 19 20 21 21 22 22 22 23 23 24 25 26 26 27 27 28 28 28 28 28 28 29 29 29 29 29 29 29 30 30 29 29 29 29 29 29 29 29 29 29 29 28 28 28 27 27 27 27 27 27 27 27 27 26 26 25 25 24
15 15 15 16 16 16 16 17 17 18 19 20 21 21 22 23 23 24 24 25 25 26 26 27 28 28 28 28 28 28 28 29 29 29 29 29 29 29 29 29 29 29 29 29 29 29 28 28 28 28 28 28 27 27 27 27 27 26 26 26 26 26 26 25 25 24 23 22 21
14 14 15 15 15 16 16 17 18 19 20 21 22 23 23 24 24 25 25 25 26 26 27 28 28 28 29 29 29 28 28 29 29 29 29 29 29 29 29 29 29 28 28 28 28 27 27 27 27 27 27 26 26 26 26 26 26 26 26 25 25 25 24 23 23 21 20 19 18
14 14 15 15 16 16 17 18 19 20 21 22 23 23 24 25 25 25 26 26 26 27 27 28 28 28 29 29 29 29 29 29 29 28 28 28 28 28 28 28 27 27 27 26 26 26 25 25 25 25 25 25 25 25 25 25 25 25 24 24 23 22 22 21 19 18 16 15 14
14 15 15 16 16 17 18 19 20 21 22 23 23 24 24 24 25 25 26 26 27 27 28 28 29 29 29 29 29 29 28 28 28 28 27 27 27 27 26 26 26 25 25 24 24 24 24 24 24 24 24 24 24 24 24 23 23 22 22 21 20 19 18 16 15 14 13 13 14
14 15 16 17 17 18 19 20 21 21 22 22 23 23 24 24 25 26 26 27 27 27 28 28 28 28 28 28 28 28 27 27 27 26 26 26 25 25 24 24 24 23 23 23 23 22 22 22 22 22 22 22 22 22 21 21 21 20 20 19 17 15 14 12 12 13 13 14 16
14 15 17 18 18 19 20 20 20 20 21 22 22 23 24 25 25 26 26 26 27 27 27 27 27 27 27 27 26 26 26 25 25 24 24 24 23 23 23 22 22 22 22 21 21 21 21 21 20 20 20 19 19 19 19 19 19 19 17 16 14 12 12 12 13 14 15 16 16
14 15 17 18 19 20 20 20 20 20 20 21 22 23 23 24 25 25 26 26 26 26 25 25 25 24 24 24 24 24 24 24 23 23 22 22 22 22 21 21 20 20 20 20 20 20 20 19 18 17 17 16 16 17 16 16 16 15 14 13 12 12 12 13 14 15 15 15 15
15 16 17 19 19 19 19 19 19 20 20 21 22 22 23 23 23 24 24 24 24 23 23 22 21 21 21 22 22 22 22 22 21 21 21 21 20 20 20 19 18 18 18 18 18 18 17 16 15 14 14 14 14 14 13 12 11 10 10 11 11 12 13 14 14 15 15 15 15
16 17 18 19 19 18 18 18 19 20 20 20 20 21 21 21 21 21 21 20 20 19 19 18 18 18 18 18 18 18 18 18 18 18 18 18 18 18 17 17 16 16 15 15 15 15 14 13 12 11 12 12 12 12 11 10 10 10 10 10 11 12 13 14 15 15 16 16 15
17 18 18 19 18 18 17 18 19 20 20 19 19 19 19 19 19 18 18 17 16 15 15 16 16 16 16 15 15 14 14 15 15 16 16 17 17 16 16 15 14 14 13 12 12 13 13 13 12 11 11 11 10 10 10 10 10 10 10 11 11 12 13 15 15 16 16 16 16
18 18 18 18 17 17 17 18 18 19 18 17 16 16 15 15 15 15 15 14 14 13 13 14 15 15 14 13 13 13 14 14 15 16 16 17 16 16 16 15 15 14 13 13 12 13 13 13 12 11 11 10 10 9 9 9 10 11 11 11 11 12 13 15 15 15 15 15 14
18 18 17 17 17 17 17 17 18 17 16 15 13 11 10 10 11 12 13 14 14 14 14 14 14 13 13 13 14 14 15 16 16 17 17 17 17 17 16 16 15 15 14 14 14 14 13 12 12 11 11 10 10 9 8 8 9 9 10 10 11 11 11 12 12 12 12 12 12
18 17 16 16 16 16 16 17 16 15 14 12 10 9 8 9 9 10 12 13 14 15 15 14 14 14 14 14 15 15 16 17 17 18 18 18 17 17 16 15 14 14 14 14 14 14 13 12 12 11 11 11 11 10 10 10 8 8 7 8 8 9 9 9 9 9 10 10 10
18 17 16 15 15 15 15 15 14 12 11 10 10 10 10 11 11 12 12 13 14 14 15 15 15 15 15 15 16 16 17 17 18 18 18 18 18 17 16 15 14 14 14 13 13 13 13 13 12 12 12 12 12 12 12 11 10 9 9 8 8 8 8 8 9 9 9 10 10
17 16 15 14 14 14 14 12 11 10 10 10 11 11 12 12 13 13 13 13 13 13 13 14 14 15 16 16 17 17 17 17 18 18 18 18 18 18 17 16 15 14 14 14 14 14 14 14 13 13 13 12 12 12 12 12 12 11 10 10 9 9 9 9 10 10 10 11 11
17 15 14 14 13 13 12 11 10 10 11 11 11 12 12 13 13 13 13 12 12 12 12 13 14 15 16 17 18 18 18 18 18 18 18 17 18 19 19 18 17 16 15 15 15 15 15 14 14 14 14 14 13 13 13 13 12 12 11 11 10 10 10 10 11 11 12 12 12
16 15 14 13 13 12 11 10 10 10 11 11 11 12 12 13 13 12 11 10 10 11 11 12 14 15 16 17 18 18 19 19 19 20 19 18 18 18 19 20 19 19 18 17 16 16 16 16 16 16 16 16 15 14 14 14 13 13 12 11 10 10 10 10 11 12 12 13 13
16 14 14 13 12 11 10 10 10 11 11 11 12 12 13 13 11 10 9 9 9 10 12 13 15 16 17 18 18 18 18 19 19 20 19 18 17 17 18 20 21 21 20 19 18 18 17 17 18 18 18 17 16 15 15 14 14 13 12 11 10 10 10 11 11 12 12 13 13
15 14 13 13 12 11 10 10 10 11 11 12 12 13 13 12 11 9 9 9 10 11 13 14 16 17 18 18 18 17 17 17 17 18 18 17 17 16 16 18 20 21 21 21 20 19 19 19 19 18 18 17 16 15 15 14 13 12 12 11 11 11 11 11 11 11 12 12 12
15 14 13 12 11 11 10 10 11 11 12 12 13 13 12 11 10 10 10 10 12 13 14 15 16 17 17 17 17 16 15 15 15 16 16 16 15 14 14 15 17 18 19 20 20 19 19 19 18 17 16 16 15 15 14 13 12 12 11 11 11 11 11 11 11 11 12 12 12
15 13 12 12 11 11 11 11 11 12 12 12 12 12 11 11 10 10 11 11 13 14 15 16 16 17 17 16 15 15 14 14 14 14 15 15 14 14 13 12 13 15 16 17 17 17 17 16 16 15 14 14 14 13 13 12 12 11 11 12 12 12 11 11 11 12 12 11 11
14 13 12 12 12 12 12 12 11 12 12 11 11 10 10 10 10 10 11 12 13 14 15 16 16 16 15 15 14 13 13 13 13 14 14 14 13 13 12 11 11 11 12 13 14 14 14 13 13 13 12 12 12 12 12 12 12 12 12 12 12 12 12 12 12 12 12 11 11
14 13 13 13 13 13 12 12 11 11 10 10 10 10 10 10 10 11 12 13 13 14 14 15 15 15 14 13 13 12 13 13 13 13 13 13 12 12 11 10 10 9 9 10 10 10 11 11 11 11 11 11 11 11 11 11 12 12 12 12 12 12 12 12 12 11 11 11 11
14 13 13 13 13 13 12 11 10 10 10 10 10 10 11 11 11 12 12 13 13 13 13 14 14 13 13 12 12 12 12 12 12 12 12 11 11 10 10 9 9 8 8 7 8 8 9 9 9 10 10 11 11 11 11 12 12 12 12 12 12 12 12 12 11 11 11 11 11
14 14 14 14 14 13 12 10 10 10 10 11 11 11 11 11 11 11 12 12 12 12 12 12 12 12 11 11 11 11 11 11 11 11 11 11 10 10 9 9 8 7 6 6 6 7 7 8 9 9 10 11 11 11 12 12 12 12 12 12 12 12 12 11 11 11 11 11 11
14 14 15 14 14 13 12 11 10 11 11 11 11 11 10 10 10 10 10 10 10 10 11 11 10 10 10 10 10 10 10 10 10 10 10 10 10 9 9 9 8 7 6 5 5 6 7 8 9 10 10 11 11 12 12 12 12 12 12 12 12 12 12 11 11 11 11 11 11
14 15 15 15 14 13 12 11 11 12 12 12 12 11 10 9 9 9 9 9 10 10 10 10 10 10 9 9 9 9 10 9 9 9 9 9 9 9 9 9 8 7 6 5 5 6 7 8 9 10 10 11 11 12 12 12 12 11 12 12 12 12 11 11 11 11 11 11 11
Wind_Direction
215 217 220 222 225 227 228 229 230 231 233 234 235 235 236 236 236 235 234 235 235 237 239 241 244 247 249 252 254 255 257 259 262 264 266 268 270 271 271 271 271 270 269 267 265 264 263 262 261 261 261 261 261 262 262 262 261 261 260 260 261 263 265 267 269 270 271 272 273
219 222 224 226 229 230 231 232 232 232 232 233 234 234 233 233 233 233 235 237 239 241 243 246 249 252 254 256 258 260 263 265 267 269 271 272 273 273 273 273 272 271 270 269 268 266 265 264 263 262 262 262 262 262 262 263 263 262 262 262 262 262 263 264 265 267 269 270 271
223 226 228 230 232 233 233 233 232 231 231 231 231 231 231 231 232 234 238 241 244 246 249 252 255 257 259 261 263 265 267 268 270 271 272 273 273 273 273 273 273 272 271 270 269 268 267 266 266 265 265 265 264 264 265 265 265 265 265 266 266 265 264 262 263 263 265 266 267
226 229 231 233 233 234 234 233 232 231 230 230 231 231 232 233 235 238 242 245 249 252 254 256 258 259 261 263 265 267 268 269 270 271 271 272 272 272 272 272 271 271 270 269 268 268 267 267 267 267 268 268 268 269 269 270 270 270 270 270 270 269 268 266 264 262 261 261 261
230 231 233 233 234 235 235 235 234 234 233 233 233 234 236 238 241 243 246 249 252 254 256 257 259 261 263 265 266 268 269 269 270 270 270 270 270 270 270 269 269 269 268 267 267 267 267 267 267 268 269 270 271 272 273 273 274 274 274 274 273 272 271 269 267 264 261 259 258
232 233 234 234 234 235 236 236 237 238 238 238 239 239 241 243 245 247 249 251 253 255 257 259 261 263 265 266 267 268 269 269 270 270 270 270 269 269 268 267 267 266 266 266 266 266 267 268 268 268 269 270 271 272 274 275 275 275 275 275 274 273 272 270 268 266 263 260 258
232 233 234 234 235 235 236 237 238 239 241 242 243 244 245 246 248 249 251 252 254 257 259 261 263 265 267 267 268 269 269 269 270 270 269 269 269 268 267 267 266 266 266 266 266 267 267 268 269 270 270 271 272 273 274 274 275 275 275 275 274 273 271 269 268 266 265 263 261
232 233 234 234 235 236 237 238 239 241 243 244 246 247 248 249 250 252 253 255 256 258 260 263 265 266 267 268 269 270 270 270 270 270 269 269 269 269 268 268 267 267 267 267 267 268 268 269 270 271 271 272 273 273 274 274 274 274 274 274 274 273 271 269 268 267 267 266 264
233 233 234 234 235 236 238 239 241 243 245 247 248 249 251 252 254 255 257 258 260 262 264 266 267 269 270 271 271 272 272 271 271 271 271 271 271 271 270 270 269 269 268 268 269 269 270 271 271 272 273 273 273 274 274 273 273 273 273 273 273 272 271 270 269 268 268 267 266
234 234 235 236 237 238 240 242 243 245 247 249 250 252 253 255 257 259 261 263 265 267 269 270 271 272 273 273 273 274 273 273 273 272 272 272 272 271 271 271 270 270 270 270 271 271 272 272 273 273 273 273 273 273 273 273 272 272 272 272 272 272 272 272 271 270 269 268 266
234 235 236 237 238 239 241 243 245 247 248 250 252 254 256 258 260 262 263 266 268 270 271 272 273 273 274 274 274 274 274 273 273 272 272 271 271 271 271 270 270 270 271 271 271 272 272 272 272 273 273 273 273 273 273 272 272 272 272 272 272 272 272 272 271 271 269 268 267
233 235 236 238 239 241 243 245 247 249 251 253 255 257 259 260 262 263 265 267 268 270 271 272 272 273 274 274 274 274 273 273 273 272 272 271 271 271 270 270 270 271 271 271 271 271 271 271 272 272 273 273 273 273 272 272 272 272 273 273 272 272 272 272 271 270 269 268 265
233 235 237 239 241 243 246 248 250 253 255 256 258 259 261 262 264 266 268 268 269 270 271 272 272 273 273 273 273 273 274 273 273 273 273 272 272 271 271 271 271 271 271 271 270 270 270 271 271 271 272 272 272 272 272 272 272 272 272 272 272 271 271 271 270 269 268 266 264
235 238 240 243 245 248 250 253 255 256 258 260 261 262 264 265 267 269 270 270 271 272 272 273 273 273 273 274 274 274 274 274 274 274 274 273 273 273 272 272 272 272 271 271 271 270 270 270 270 270 271 271 271 271 271 272 271 271 271 270 270 270 269 269 268 267 266 264 262
239 242 245 248 251 254 256 257 259 260 261 263 264 266 267 269 270 272 272 273 273 273 274 274 274 275 275 275 274 274 274 274 274 274 274 274 273 273 273 273 273 272 272 271 271 271 271 270 271 271 271 271 272 272 272 272 271 271 270 270 269 269 268 268 267 266 265 263 262
245 248 251 254 256 258 260 261 262 263 264 266 267 269 270 272 273 274 275 275 275 275 274 274 275 275 275 275 275 275 274 274 274 274 274 274 273 273 273 272 272 272 272 271 271 271 272 272 272 272 273 273 273 273 273 272 272 271 271 270 269 268 268 267 266 264 263 262 261
251 254 256 258 260 262 263 264 265 266 267 268 270 271 273 274 275 276 276 275 275 275 274 274 275 275 275 276 276 276 275 275 275 274 274 273 273 272 272 272 272 272 272 272 272 273 273 273 274 274 274 274 274 274 274 273 273 272 271 270 269 268 266 265 263 261 259 258 257
258 260 262 264 265 266 266 267 268 269 271 272 273 274 275 276 276 276 276 275 275 275 275 275 276 276 276 276 276 276 276 275 274 274 273 273 272 272 272 272 272 272 273 273 273 274 274 274 274 274 274 275 275 274 274 273 272 270 268 267 266 265 264 262 261 258 256 255 255
267 269 270 270 270 270 270 271 273 275 276 276 276 277 277 276 276 276 276 276 276 277 276 277 277 277 277 277 276 276 275 274 273 273 272 271 271 271 271 271 271 272 273 273 274 274 274 274 274 275 275 275 275 274 273 272 270 268 266 264 262 260 258 257 256 255 253 253 253
274 275 275 274 274 275 277 279 281 281 281 280 279 278 278 278 278 278 278 277 277 277 277 277 277 277 277 276 276 275 274 273 272 271 271 270 270 269 270 270 271 273 274 274 274 274 274 274 274 274 274 274 274 273 272 271 269 267 264 261 257 253 250 249 249 250 251 252 254
278 278 277 278 280 283 285 287 286 284 283 281 281 280 280 280 280 279 279 278 278 278 278 278 277 277 276 275 274 273 273 272 272 271 270 269 269 269 269 271 272 273 274 274 275 275 275 274 274 274 275 276 276 276 275 274 271 266 260 254 249 246 245 245 246 247 249 252 255
281 280 281 284 288 290 291 289 286 284 283 282 282 281 281 281 281 280 280 280 280 280 280 280 279 278 276 276 275 275 274 274 274 273 271 270 270 270 271 272 272 273 274 275 277 277 277 276 275 277 279 283 285 286 286 283 277 268 257 249 245 244 244 245 246 247 248 251 254
285 285 288 292 293 293 290 286 284 282 282 281 281 281 281 281 281 281 281 281 282 283 284 284 283 281 280 280 280 280 280 279 279 278 276 274 272 272 271 272 272 274 276 277 278 278 276 273 272 274 277 281 283 284 282 277 275 270 263 257 252 248 245 245 246 247 247 248 249
289 291 294 295 294 291 287 283 282 281 281 280 280 281 282 283 282 280 279 279 282 285 287 287 285 285 285 284 284 285 285 285 285 284 282 280 277 274 272 270 269 270 271 272 272 271 269 266 264 263 265 266 267 266 263 260 259 258 256 255 253 249 246 244 243 243 243 243 242
294 296 297 295 292 288 284 281 279 279 279 279 280 283 286 287 285 282 280 279 279 281 282 283 284 284 284 283 282 280 280 281 282 283 284 284 282 279 274 270 266 264 262 263 264 266 267 266 262 259 256 256 258 258 254 250 246 244 244 244 246 245 243 241 239 238 237 235 232
297 298 296 293 289 285 281 278 277 277 278 280 283 287 290 291 289 286 282 277 273 271 272 273 276 278 278 277 276 275 274 275 277 279 282 284 286 284 281 276 269 263 259 258 261 264 267 267 265 260 255 253 257 261 261 254 247 242 240 240 241 242 240 237 235 232 229 227 225
299 297 293 289 285 280 277 276 277 279 282 285 288 289 288 288 288 288 286 281 275 270 268 267 268 269 272 273 273 272 273 275 276 278 279 280 282 283 283 280 273 264 257 255 256 259 260 261 261 260 256 252 251 255 260 263 262 257 253 250 248 245 242 238 234 232 230 229 228
297 294 289 284 278 275 275 276 278 280 282 285 285 285 285 287 291 294 293 289 282 275 268 263 263 265 268 271 273 274 275 277 277 276 275 273 272 271 272 271 267 261 254 250 249 249 250 252 254 255 255 252 249 248 251 257 262 265 266 265 263 259 254 249 245 242 241 241 242
294 290 284 277 273 272 273 274 274 273 273 274 276 280 285 290 294 296 295 292 287 280 271 264 263 266 270 274 278 279 281 281 281 278 274 268 263 260 259 260 259 256 251 247 245 244 245 248 251 253 254 254 252 251 252 255 259 264 268 269 269 265 260 256 252 250 249 249 250
291 285 278 272 269 269 268 267 266 265 266 268 273 280 287 293 295 296 293 290 285 280 276 272 272 275 278 282 284 286 287 288 287 285 280 272 261 254 251 252 253 252 250 247 245 245 246 249 251 254 255 256 256 258 260 262 265 269 272 272 268 262 256 251 249 248 248 249 250
287 280 272 267 265 264 263 261 261 261 262 266 273 281 288 292 294 293 290 286 281 280 280 282 283 285 288 290 291 293 293 293 293 292 290 284 271 258 250 248 248 249 249 248 248 248 250 253 255 256 257 257 258 259 263 266 269 273 275 274 268 260 251 245 242 241 242 243 245
282 274 267 262 260 258 257 256 256 256 260 267 275 283 287 289 288 287 284 280 278 280 284 287 290 292 293 294 295 294 293 293 294 295 296 294 285 270 256 248 246 246 247 248 249 251 253 257 259 259 259 257 257 258 260 263 266 269 270 269 263 255 247 241 237 236 236 237 238
278 269 263 258 255 253 252 250 251 255 262 270 277 281 282 281 279 275 273 273 276 279 282 285 288 290 292 292 291 290 289 289 290 292 295 296 293 283 268 254 249 248 248 248 250 252 255 259 261 261 259 257 255 255 256 257 259 260 260 257 252 246 241 237 234 233 233 233 233
275 266 259 254 250 248 246 247 252 259 267 273 276 276 275 272 268 265 265 267 271 275 279 284 288 290 292 291 290 289 288 288 289 290 292 293 293 289 278 265 256 252 250 250 250 252 255 259 261 260 257 254 251 250 250 251 251 251 249 246 242 238 236 234 233 233 233 233 232
272 262 253 248 245 243 244 248 256 265 271 274 274 271 269 267 266 266 267 268 271 276 281 286 290 292 293 292 291 290 290 289 289 289 289 289 289 286 280 271 263 256 253 251 251 252 254 257 257 255 251 247 245 243 243 242 243 243 242 240 237 235 233 233 234 235 236 236 234
269 257 247 243 240 241 244 251 261 270 275 275 272 269 269 270 272 273 274 276 279 283 288 291 294 294 293 292 290 289 288 288 287 287 287 286 285 281 277 272 265 259 254 252 251 251 252 251 250 246 242 239 237 235 235 235 237 237 237 236 234 233 233 233 235 236 238 239 238
264 253 244 240 239 241 245 254 264 272 275 274 272 271 271 273 275 277 279 281 285 288 292 295 297 298 296 293 289 287 286 285 285 286 286 286 284 280 276 271 265 259 255 254 252 250 247 244 240 235 232 229 228 228 229 231 232 233 232 231 232 232 232 234 236 237 239 240 240
258 250 244 241 240 241 246 254 264 270 273 272 271 271 273 274 276 278 280 282 285 289 293 297 300 301 301 298 295 290 286 284 286 288 288 288 286 282 278 273 268 263 260 257 253 248 241 236 230 225 222 220 221 223 225 227 228 228 228 228 230 231 231 233 235 237 238 239 239
251 246 244 242 241 241 245 252 261 266 268 269 270 272 274 275 276 277 279 282 285 288 292 297 300 302 304 303 300 296 293 291 290 291 290 288 286 283 280 276 275 272 270 264 254 244 235 227 220 216 215 216 218 220 223 225 225 225 225 227 229 230 231 231 232 234 235 236 237
245 242 241 241 240 241 243 250 257 262 264 266 269 272 275 277 278 279 281 284 286 289 292 296 298 302 305 307 306 303 301 299 296 292 289 287 284 283 281 280 282 283 282 273 258 243 230 221 216 213 212 214 216 219 221 223 223 224 224 226 228 229 229 229 229 230 231 233 236
241 238 238 238 239 240 243 248 254 259 261 264 267 270 274 277 280 282 283 285 287 288 291 293 296 300 304 308 308 307 305 304 301 296 291 288 286 285 284 285 286 288 286 276 260 242 228 220 216 214 214 215 217 219 221 223 223 223 224 226 228 228 227 225 225 227 228 231 234
Height
1521 1522 1523 1524 1525 1526 1527 1527 1527 1528 1528 1528 1528 1529 1529 1529 1530 1530 1531 1531 1532 1532 1532 1532 1533 1533 1533 1534 1534 1535 1535 1535 1536 1536 1536 1536 1537 1537 1537 1537 1537 1537 1537 1537 1537 1537 1537 1537 1537 1537 1537 1537 1537 1537 1537 1538 1538 1538 1538 1538 1537 1537 1537 1536 1536 1536 1536 1536 1536
1520 1521 1522 1523 1524 1525 1525 1526 1526 1526 1527 1527 1527 1527 1527 1528 1528 1529 1529 1529 1530 1530 1531 1531 1532 1532 1532 1532 1532 1533 1533 1534 1534 1534 1534 1534 1534 1534 1534 1535 1535 1535 1535 1535 1535 1535 1535 1535 1535 1535 1535 1535 1535 1535 1535 1536 1536 1536 1536 1536 1536 1536 1535 1535 1534 1534 1534 1534 1534
1518 1520 1521 1522 1522 1523 1524 1524 1524 1525 1525 1525 1525 1525 1526 1526 1527 1527 1528 1528 1528 1529 1529 1530 1530 1530 1531 1531 1531 1531 1532 1532 1532 1532 1532 1532 1532 1532 1532 1532 1532 1532 1532 1532 1532 1532 1533 1533 1533 1533 1533 1533 1533 1533 1533 1533 1534 1534 1533 1533 1533 1533 1533 1533 1533 1533 1532 1532 1532
1518 1519 1520 1521 1521 1522 1522 1522 1523 1523 1523 1524 1524 1524 1525 1525 1526 1526 1527 1527 1527 1527 1528 1528 1528 1529 1529 1529 1530 1530 1530 1530 1530 1530 1531 1531 1531 1531 1531 1530 1530 1530 1530 1530 1530 1531 1531 1531 1531 1531 1531 1531 1531 1531 1531 1531 1531 1531 1531 1531 1531 1531 1531 1531 1531 1531 1531 1531 1530
1517 1518 1518 1519 1520 1520 1521 1521 1522 1522 1522 1522 1523 1523 1524 1524 1525 1525 1525 1526 1526 1526 1526 1526 1527 1527 1527 1528 1528 1528 1528 1528 1528 1529 1529 1529 1529 1529 1529 1529 1528 1528 1528 1528 1528 1528 1528 1528 1528 1528 1528 1528 1528 1528 1528 1529 1529 1528 1528 1528 1528 1528 1528 1528 1528 1528 1529 1529 1528
1516 1517 1517 1518 1518 1519 1519 1520 1520 1521 1521 1521 1522 1522 1522 1523 1523 1523 1524 1524 1524 1524 1525 1525 1525 1526 1526 1526 1527 1527 1527 1527 1527 1527 1527 1527 1527 1527 1527 1527 1527 1527 1527 1527 1527 1527 1527 1527 1526 1526 1526 1526 1526 1526 1527 1527 1526 1526 1526 1526 1526 1526 1526 1526 1526 1526 1526 1526 1527
1514 1515 1516 1517 1517 1518 1518 1519 1519 1519 1520 1520 1521 1521 1521 1522 1522 1522 1522 1522 1523 1523 1523 1524 1524 1524 1524 1525 1525 1525 1525 1525 1525 1525 1525 1525 1525 1525 1525 1525 1525 1525 1525 1525 1525 1525 1525 1524 1524 1524 1524 1524 1524 1524 1524 1524 1524 1524 1523 1523 1524 1524 1524 1523 1523 1524 1524 1524 1524
1513 1514 1514 1515 1516 1516 1517 1517 1518 1518 1518 1519 1519 1519 1520 1520 1520 1520 1521 1521 1521 1522 1522 1522 1522 1522 1522 1522 1522 1522 1522 1522 1522 1522 1522 1522 1522 1522 1523 1523 1523 1523 1523 1523 1523 1522 1522 1522 1522 1522 1522 1522 1522 1522 1522 1522 1522 1521 1521 1521 1521 1521 1522 1521 1521 1522 1522 1522 1522
1512 1512 1513 1514 1514 1515 1516 1516 1517 1517 1517 1517 1518 1518 1518 1518 1519 1519 1519 1519 1520 1520 1520 1520 1520 1520 1521 1521 1521 1521 1521 1520 1520 1520 1520 1520 1521 1521 1521 1521 1521 1521 1521 1521 1521 1521 1520 1520 1520 1520 1520 1520 1519 1519 1519 1519 1519 1519 1519 1519 1519 1519 1519 1519 1519 1519 1520 1520 1520
1511 1511 1512 1512 1513 1514 1514 1515 1515 1516 1516 1516 1517 1517 1517 1517 1517 1517 1517 1518 1518 1518 1518 1518 1518 1518 1518 1518 1518 1518 1518 1518 1518 1518 1518 1519 1519 1519 1518 1519 1518 1518 1518 1518 1518 1518 1518 1518 1517 1517 1517 1517 1517 1517 1517 1517 1516 1516 1516 1516 1516 1516 1516 1517 1517 1517 1517 1518 1517
1510 1511 1511 1512 1512 1513 1513 1514 1514 1514 1515 1515 1515 1515 1515 1515 1516 1516 1516 1516 1517 1517 1517 1516 1516 1517 1517 1517 1517 1517 1517 1517 1517 1517 1517 1517 1517 1517 1517 1516 1516 1516 1516 1516 1516 1516 1516 1515 1515 1515 1515 1515 1514 1514 1514 1514 1514 1514 1514 1514 1514 1514 1514 1514 1515 1515 1516 1516 1515
1509 1510 1510 1511 1511 1512 1512 1512 1513 1513 1513 1513 1513 1513 1513 1513 1514 1514 1514 1515 1515 1515 1515 1515 1515 1515 1515 1515 1515 1515 1515 1515 1514 1514 1514 1514 1514 1514 1514 1514 1514 1514 1514 1514 1514 1514 1513 1513 1513 1512 1512 1512 1512 1512 1512 1512 1512 1512 1512 1512 1512 1512 1512 1512 1512 1513 1513 1513 1513
1508 1509 1509 1510 1510 1511 1511 1511 1511 1511 1511 1511 1512 1512 1512 1512 1512 1512 1513 1513 1513 1513 1513 1512 1512 1512 1512 1513 1513 1512 1512 1512 1512 1512 1512 1512 1512 1512 1512 1512 1512 1512 1512 1512 1512 1511 1511 1511 1510 1510 1510 1510 1510 1510 1510 1510 1510 1510 1509 1509 1509 1509 1509 1510 1510 1511 1511 1511 1511
1507 1507 1508 1508 1508 1509 1509 1509 1509 1509 1509 1509 1510 1510 1510 1510 1510 1511 1511 1511 1511 1511 1511 1510 1510 1510 1510 1511 1511 1510 1510 1510 1510 1510 1510 1510 1510 1510 1509 1509 1509 1509 1509 1509 1509 1509 1508 1508 1508 1508 1508 1507 1507 1507 1507 1507 1507 1507 1507 1507 1507 1507 1507 1507 1508 1508 1508 1509 1509
1506 1506 1506 1507 1507 1507 1507 1507 1507 1507 1508 1508 1508 1508 1508 1508 1508 1509 1509 1509 1509 1508 1508 1508 1508 1508 1508 1508 1508 1508 1508 1508 1507 1507 1507 1507 1507 1507 1507 1507 1507 1507 1507 1507 1507 1506 1506 1506 1506 1506 1505 1505 1505 1505 1505 1505 1505 1505 1505 1505 1505 1505 1505 1505 1506 1506 1506 1507 1507
1504 1504 1505 1505 1505 1505 1506 1506 1506 1506 1506 1506 1506 1506 1506 1506 1506 1507 1507 1507 1507 1507 1506 1506 1506 1506 1506 1506 1506 1506 1505 1505 1505 1505 1505 1505 1505 1505 1505 1504 1504 1504 1504 1504 1504 1504 1504 1504 1503 1503 1503 1503 1503 1503 1503 1503 1503 1503 1503 1503 1503 1503 1503 1503 1503 1504 1504 1504 1505
1503 1503 1503 1503 1504 1504 1504 1504 1504 1504 1504 1504 1504 1504 1505 1505 1505 1505 1505 1505 1504 1504 1504 1503 1503 1503 1503 1503 1503 1503 1503 1503 1503 1503 1503 1502 1502 1502 1502 1502 1502 1502 1502 1502 1502 1502 1502 1502 1501 1501 1501 1501 1501 1501 1501 1501 1501 1501 1501 1501 1501 1501 1501 1501 1501 1502 1502 1502 1503
1501 1502 1502 1502 1502 1502 1502 1502 1503 1503 1503 1503 1503 1503 1503 1503 1503 1503 1502 1502 1502 1502 1502 1501 1501 1501 1501 1501 1501 1501 1501 1501 1501 1500 1500 1500 1500 1500 1500 1500 1500 1500 1500 1500 1500 1500 1500 1500 1499 1499 1499 1499 1499 1499 1499 1499 1499 1499 1499 1499 1499 1499 1499 1499 1500 1500 1501 1501 1502
1500 1500 1500 1501 1501 1501 1501 1501 1501 1502 1502 1501 1501 1501 1501 1501 1501 1500 1500 1500 1500 1499 1499 1499 1499 1499 1499 1499 1499 1499 1499 1498 1498 1498 1498 1498 1498 1498 1498 1498 1498 1498 1498 1498 1498 1498 1498 1497 1497 1497 1497 1497 1497 1497 1497 1497 1497 1497 1497 1497 1497 1497 1498 1498 1498 1499 1500 1500 1501
1499 1499 1499 1499 1499 1499 1499 1500 1500 1500 1500 1499 1499 1499 1499 1498 1498 1498 1498 1497 1497 1497 1497 1497 1497 1497 1497 1497 1497 1497 1497 1497 1496 1496 1496 1496 1496 1496 1496 1496 1496 1496 1496 1496 1496 1496 1496 1496 1496 1496 1496 1495 1495 1495 1495 1495 1495 1495 1495 1496 1496 1496 1497 1497 1497 1498 1498 1499 1499
1497 1497 1497 1497 1497 1497 1497 1497 1497 1497 1497 1497 1497 1497 1496 1496 1496 1496 1495 1495 1495 1495 1495 1495 1495 1495 1495 1495 1495 1495 1495 1494 1494 1495 1495 1495 1495 1494 1495 1495 1495 1495 1495 1495 1495 1494 1494 1494 1494 1494 1494 1494 1494 1494 1494 1494 1494 1494 1494 1494 1495 1495 1495 1496 1496 1497 1497 1497 1498
1496 1496 1495 1495 1495 1496 1496 1496 1495 1495 1495 1495 1495 1494 1494 1494 1494 1494 1493 1493 1493 1493 1493 1493 1494 1494 1493 1493 1493 1493 1493 1493 1493 1493 1493 1493 1493 1493 1493 1493 1493 1493 1493 1493 1493 1493 1493 1493 1493 1493 1493 1493 1492 1492 1492 1492 1492 1493 1493 1493 1493 1494 1494 1495 1495 1495 1496 1496 1497
1494 1494 1494 1494 1494 1494 1494 1494 1493 1493 1493 1493 1493 1493 1493 1492 1492 1492 1492 1492 1492 1492 1492 1492 1492 1492 1492 1492 1492 1492 1492 1492 1492 1492 1492 1492 1492 1492 1492 1492 1492 1492 1492 1492 1492 1492 1492 1492 1492 1492 1492 1492 1492 1492 1492 1492 1492 1492 1492 1492 1492 1493 1493 1493 1494 1494 1495 1495 1496
1492 1492 1492 1492 1492 1492 1492 1492 1492 1491 1491 1492 1492 1492 1492 1491 1491 1491 1491 1491 1491 1491 1491 1491 1491 1491 1491 1491 1491 1491 1491 1491 1491 1490 1490 1491 1491 1491 1491 1491 1491 1491 1491 1492 1491 1491 1491 1491 1491 1491 1491 1491 1491 1491 1491 1491 1491 1491 1491 1491 1492 1492 1492 1492 1493 1493 1493 1494 1495
1491 1491 1491 1491 1491 1491 1491 1490 1490 1490 1490 1491 1491 1491 1491 1490 1490 1490 1490 1490 1490 1490 1490 1490 1490 1490 1490 1490 1490 1490 1490 1489 1489 1489 1489 1489 1489 1489 1490 1490 1490 1490 1490 1490 1490 1490 1490 1490 1490 1490 1490 1490 1490 1490 1490 1490 1490 1490 1490 1490 1491 1491 1491 1491 1492 1492 1492 1493 1493
1489 1489 1489 1489 1489 1489 1489 1489 1489 1489 1489 1489 1490 1490 1490 1489 1489 1489 1489 1489 1489 1489 1489 1489 1489 1489 1489 1489 1489 1489 1489 1488 1488 1488 1488 1488 1488 1488 1488 1488 1489 1489 1489 1489 1489 1489 1489 1489 1489 1489 1489 1490 1489 1489 1489 1489 1489 1489 1489 1490 1490 1490 1490 1490 1491 1491 1492 1492 1492
1487 1488 1488 1488 1487 1487 1487 1487 1487 1487 1488 1488 1488 1488 1488 1488 1488 1488 1488 1488 1488 1488 1488 1488 1488 1488 1488 1488 1488 1488 1488 1487 1487 1487 1487 1487 1487 1487 1487 1487 1487 1487 1488 1488 1488 1488 1488 1488 1488 1489 1489 1489 1489 1489 1489 1489 1489 1489 1489 1489 1489 1489 1489 1490 1490 1490 1491 1491 1492
1486 1486 1486 1486 1486 1486 1486 1486 1486 1486 1486 1487 1487 1487 1487 1487 1487 1487 1487 1487 1487 1487 1487 1487 1487 1487 1487 1487 1487 1487 1487 1487 1487 1486 1486 1486 1486 1486 1487 1487 1487 1487 1487 1487 1487 1487 1487 1487 1487 1487 1487 1487 1487 1488 1488 1488 1488 1488 1488 1488 1488 1488 1489 1489 1489 1490 1490 1490 1491
1485 1485 1485 1485 1484 1484 1484 1485 1485 1485 1486 1486 1486 1486 1486 1486 1486 1486 1486 1486 1486 1486 1486 1486 1486 1486 1486 1486 1486 1486 1485 1485 1485 1485 1485 1485 1485 1485 1485 1485 1485 1485 1485 1486 1486 1486 1486 1486 1486 1486 1486 1487 1487 1487 1487 1487 1487 1487 1487 1487 1487 1488 1488 1488 1488 1489 1489 1489 1490
1483 1483 1483 1483 1483 1483 1483 1484 1484 1484 1485 1485 1485 1485 1485 1485 1485 1485 1485 1485 1484 1485 1485 1485 1485 1485 1485 1484 1484 1484 1484 1483 1483 1483 1483 1483 1483 1483 1483 1483 1484 1484 1484 1484 1484 1485 1485 1485 1485 1485 1485 1485 1486 1486 1486 1486 1486 1486 1487 1487 1487 1487 1487 1487 1488 1488 1488 1488 1489
1482 1482 1482 1482 1482 1482 1482 1483 1483 1483 1484 1484 1484 1484 1484 1484 1484 1484 1484 1484 1484 1484 1484 1484 1484 1483 1483 1483 1483 1483 1482 1482 1482 1481 1481 1481 1481 1481 1481 1482 1482 1482 1482 1483 1483 1483 1483 1484 1484 1484 1484 1484 1484 1485 1485 1485 1485 1485 1485 1485 1486 1486 1486 1487 1487 1487 1487 1488 1488
1480 1480 1480 1481 1481 1481 1482 1482 1482 1482 1483 1483 1483 1483 1483 1483 1483 1483 1483 1483 1483 1483 1483 1483 1482 1482 1482 1482 1482 1482 1481 1481 1480 1480 1480 1479 1479 1479 1479 1480 1480 1481 1481 1481 1482 1482 1482 1482 1482 1482 1483 1483 1483 1483 1484 1484 1484 1484 1484 1484 1485 1485 1485 1486 1486 1486 1487 1487 1487
1479 1479 1479 1479 1480 1480 1481 1481 1482 1482 1482 1482 1482 1482 1482 1482 1482 1482 1482 1482 1482 1482 1482 1482 1482 1482 1481 1481 1481 1480 1480 1480 1479 1479 1479 1478 1478 1478 1478 1478 1478 1479 1479 1479 1480 1480 1481 1481 1481 1481 1481 1482 1482 1482 1482 1483 1483 1483 1483 1484 1484 1484 1484 1485 1485 1485 1486 1486 1487
1477 1478 1478 1479 1479 1480 1480 1481 1481 1481 1481 1481 1481 1481 1481 1481 1481 1481 1481 1481 1481 1481 1481 1481 1481 1481 1480 1480 1479 1479 1479 1479 1478 1478 1478 1477 1477 1477 1477 1477 1477 1477 1477 1478 1478 1479 1479 1479 1479 1480 1480 1480 1480 1481 1481 1482 1482 1482 1482 1482 1483 1483 1483 1484 1484 1484 1485 1485 1486
1476 1477 1477 1478 1478 1479 1479 1480 1480 1480 1480 1480 1480 1480 1480 1480 1480 1480 1480 1481 1481 1480 1480 1480 1480 1480 1479 1479 1478 1478 1478 1478 1477 1477 1477 1477 1476 1476 1476 1476 1476 1476 1476 1477 1477 1477 1478 1478 1478 1478 1478 1479 1479 1479 1480 1480 1481 1481 1481 1482 1482 1482 1483 1483 1483 1484 1484 1484 1485
1475 1476 1477 1477 1477 1478 1479 1479 1479 1479 1479 1479 1479 1479 1479 1479 1479 1480 1480 1480 1480 1479 1479 1479 1479 1478 1478 1478 1477 1477 1477 1477 1477 1477 1476 1476 1475 1475 1475 1475 1475 1475 1475 1476 1476 1476 1477 1477 1477 1477 1477 1477 1478 1478 1479 1479 1480 1480 1481 1481 1481 1482 1482 1482 1482 1483 1483 1483 1484
1474 1475 1475 1476 1477 1477 1478 1478 1478 1478 1478 1478 1478 1478 1478 1478 1479 1479 1479 1479 1479 1479 1478 1478 1478 1477 1477 1477 1477 1477 1476 1476 1476 1476 1475 1475 1475 1474 1474 1474 1474 1474 1474 1475 1475 1475 1475 1475 1476 1476 1476 1477 1477 1477 1478 1478 1479 1479 1480 1480 1481 1481 1481 1482 1482 1482 1482 1483 1483
1473 1474 1474 1475 1476 1477 1477 1477 1477 1477 1477 1477 1478 1478 1478 1478 1478 1478 1478 1478 1478 1478 1477 1477 1477 1477 1476 1476 1476 1476 1476 1475 1475 1475 1475 1474 1474 1474 1473 1473 1473 1473 1474 1474 1474 1474 1474 1474 1475 1475 1475 1476 1476 1477 1477 1478 1478 1479 1479 1480 1480 1480 1481 1481 1481 1482 1482 1482 1483
1472 1473 1473 1474 1475 1476 1476 1477 1477 1477 1477 1477 1477 1477 1477 1477 1477 1477 1477 1477 1477 1477 1477 1477 1476 1476 1476 1475 1475 1475 1475 1475 1474 1474 1474 1474 1473 1473 1473 1472 1472 1473 1473 1473 1473 1473 1473 1473 1474 1474 1475 1475 1476 1476 1477 1477 1477 1478 1478 1479 1479 1480 1480 1481 1481 1481 1482 1482 1482
1472 1472 1472 1473 1474 1475 1475 1476 1476 1476 1477 1477 1476 1476 1477 1477 1477 1477 1477 1477 1477 1476 1476 1476 1476 1475 1475 1475 1474 1474 1474 1474 1474 1474 1473 1473 1473 1472 1472 1472 1472 1472 1473 1473 1472 1472 1473 1473 1473 1474 1474 1474 1475 1475 1476 1476 1477 1477 1478 1478 1478 1479 1479 1480 1480 1481 1481 1481 1481
1471 1471 1472 1472 1473 1474 1474 1475 1475 1475 1476 1476 1476 1476 1476 1476 1476 1476 1476 1476 1476 1476 1476 1475 1475 1475 1474 1474 1474 1473 1473 1473 1473 1473 1472 1472 1472 1472 1472 1472 1472 1472 1472 1472 1472 1472 1472 1472 1473 1473 1474 1474 1474 1475 1475 1476 1476 1477 1477 1477 1478 1478 1479 1479 1480 1480 1480 1480 1481